Хвойное

Россия / Санкт-Петербург и Ленинградская область     59°27′38″N   34°24′09″E
темп.,
°C
ветер,
м/с
пор.,
м/с
влажн.,
%
обл.,
%
осадки,
мм/ч
давл.,
гПа
погр.,
м
23 октября, сб
сб2300:00+5юз71672100 0.1 9891522
03:00+4юз61475100 0.1 9901175
06:00+3юз51283100 0.0 991860
09:00+3юз41089100 0.0 994703
12:00+4юз3789100 0.1 996793
15:00+3зюз3796100 0.2 999541
18:00+3зюз2799100 1.1 1001518
21:00+3з2597100 1.9 1003606
24 октября, вс
вс2400:00+2ссз3698100 0.2 1006379
03:00+1ссз4996100 0.4 1008452
06:000ссз41092100 0.8 1011764
09:000сз499198 0.8 1014620
12:00+1ссз488074 0.1 1017780
15:00+1сз47755 0.2 10191002
18:00−1сз38835 0.0 1022407
21:00−2зсз269018 0.0 1024181
25 октября, пн
пн2500:00−2з248981 0.0 1025117
03:00−2юз269097 0.0 1025188
06:00−1ююз3882100 0.0 1024373
09:00−1ю41294100 0.4 1021508
12:000ююз51397100 2.3 1019549
15:00+3юз51494100 6.1 1016926
18:00+4зюз61493100 1.6 1016939
21:00+4зюз51492100 1.8 1015710
26 октября, вт
вт2600:00+4зюз51490100 0.1 1015707
03:00+3зюз51394100 0.1 1015532
06:00+2зюз41295100 0.1 1015465
09:00+1зюз41194100 0.1 1015421
12:00+3юз31090100 0.0 1014448
15:00+4юз3988100 0.0 1013517
18:00+2юз31094100 0.0 1013402
21:00+2юз31094100 0.0 1012434
27 октября, ср
ср2700:00+3юз31093100 0.0 1011472
03:00+2ююз31094100 0.0 1009399
06:00+3юз31196100 0.8 1007510
09:00+4зюз41097100 3.3 1006556
12:00+5зюз41095100 1.6 1006792
15:00+5з51089100 1.7 1006867
18:00+5зюз41294100 0.9 10061184
21:00+4зсз41097100 2.2 10071204